Time,TemperatureF,DewpointF,PressureIn,WindDirection,WindDirectionDegrees,WindSpeedMPH,WindSpeedGustMPH,Humidity,HourlyPrecipIn,Conditions,Clouds,dailyrainin,SolarRadiationWatts/m^2,SoftwareType,DateUTC
2013-08-24 00:21:00,64.0,40.0,-100.00,NE,45,7.0,11.0,41,-99.99,,,0.00,0.000000,,2013-08-24 07:21:00,
2013-08-24 00:53:00,62.0,38.0,-100.00,NNE,14,5.0,13.0,41,0.00,,,0.00,0.000000,,2013-08-24 07:53:00,
2013-08-24 01:02:00,62.0,38.0,-100.00,NNE,14,5.0,13.0,41,0.00,,,0.00,0.000000,,2013-08-24 08:02:00,
2013-08-24 01:22:00,62.0,38.0,-100.00,NNE,14,5.0,13.0,41,0.00,,,0.00,0.000000,,2013-08-24 08:22:00,
2013-08-24 01:52:00,61.0,39.0,-100.00,NW,314,6.0,10.0,44,0.00,,,0.00,0.000000,,2013-08-24 08:52:00,
2013-08-24 02:01:00,61.0,39.0,-100.00,NW,314,6.0,10.0,44,0.00,,,0.00,0.000000,,2013-08-24 09:01:00,
2013-08-24 02:22:00,61.0,39.0,-100.00,NW,314,6.0,10.0,44,0.00,,,0.00,0.000000,,2013-08-24 09:22:00,
2013-08-24 02:53:00,59.0,37.0,-100.00,NW,314,7.0,10.0,43,-99.99,,,0.00,0.000000,,2013-08-24 09:53:00,
2013-08-24 03:03:00,59.0,37.0,-100.00,NW,314,7.0,10.0,43,-99.99,,,0.00,0.000000,,2013-08-24 10:03:00,
2013-08-24 03:53:00,58.0,38.0,-100.00,WNW,295,8.0,11.0,47,-99.99,,,0.00,0.000000,,2013-08-24 10:53:00,
2013-08-24 04:02:00,58.0,38.0,-100.00,WNW,295,8.0,11.0,47,-99.99,,,0.00,0.000000,,2013-08-24 11:02:00,
2013-08-24 04:52:00,57.0,37.0,-100.00,NE,54,7.0,11.0,47,-99.99,,,0.00,0.000000,,2013-08-24 11:52:00,
2013-08-24 05:02:00,57.0,37.0,-100.00,NE,54,7.0,11.0,47,-99.99,,,0.00,0.000000,,2013-08-24 12:02:00,
2013-08-24 06:52:00,56.0,40.0,-100.00,NW,321,7.0,11.0,54,0.00,,,0.00,0.000000,,2013-08-24 13:52:00,
2013-08-24 07:02:00,56.0,40.0,-100.00,NW,321,7.0,11.0,54,0.00,,,0.00,0.000000,,2013-08-24 14:02:00,
2013-08-24 07:52:00,60.0,39.0,-100.00,NW,321,8.0,11.0,45,-99.99,,,0.00,61.000000,,2013-08-24 14:52:00,
2013-08-24 08:01:00,60.0,39.0,-100.00,NW,321,8.0,11.0,45,-99.99,,,0.00,61.000000,,2013-08-24 15:01:00,
2013-08-24 10:12:00,71.0,39.0,-100.00,ESE,115,6.0,14.0,31,0.00,,,0.00,558.000000,,2013-08-24 17:12:00,
2013-08-24 10:23:00,71.0,39.0,-100.00,ESE,115,6.0,14.0,31,0.00,,,0.00,558.000000,,2013-08-24 17:23:00,
2013-08-24 10:52:00,77.0,35.0,-100.00,NW,317,7.0,13.0,22,0.00,,,0.00,775.000000,,2013-08-24 17:52:00,
2013-08-24 11:02:00,77.0,35.0,-100.00,NW,317,7.0,13.0,22,0.00,,,0.00,775.000000,,2013-08-24 18:02:00,
2013-08-24 11:13:00,77.0,35.0,-100.00,NW,317,7.0,13.0,22,0.00,,,0.00,775.000000,,2013-08-24 18:13:00,
2013-08-24 11:22:00,77.0,35.0,-100.00,NW,317,7.0,13.0,22,0.00,,,0.00,775.000000,,2013-08-24 18:22:00,
2013-08-24 11:53:00,83.0,27.0,-100.00,SE,141,3.0,10.0,13,0.00,,,0.00,939.000000,,2013-08-24 18:53:00,
2013-08-24 12:01:00,83.0,27.0,-100.00,SE,141,3.0,10.0,13,0.00,,,0.00,939.000000,,2013-08-24 19:01:00,
2013-08-24 12:12:00,83.0,27.0,-100.00,SE,141,3.0,10.0,13,0.00,,,0.00,939.000000,,2013-08-24 19:12:00,
2013-08-24 12:21:00,83.0,27.0,-100.00,SE,141,3.0,10.0,13,0.00,,,0.00,939.000000,,2013-08-24 19:21:00,
2013-08-24 12:52:00,85.0,25.0,-100.00,WNW,294,4.0,14.0,11,0.00,,,0.00,1040.000000,,2013-08-24 19:52:00,
2013-08-24 13:02:00,85.0,25.0,-100.00,WNW,294,4.0,14.0,11,0.00,,,0.00,1040.000000,,2013-08-24 20:02:00,
2013-08-24 13:11:00,85.0,25.0,-100.00,WNW,294,4.0,14.0,11,0.00,,,0.00,1040.000000,,2013-08-24 20:11:00,
2013-08-24 13:22:00,85.0,25.0,-100.00,WNW,294,4.0,14.0,11,0.00,,,0.00,1040.000000,,2013-08-24 20:22:00,
2013-08-24 13:52:00,85.0,25.0,-100.00,ESE,114,12.0,23.0,11,0.00,,,0.00,1080.000000,,2013-08-24 20:52:00,
2013-08-24 14:02:00,85.0,25.0,-100.00,ESE,114,12.0,23.0,11,0.00,,,0.00,1080.000000,,2013-08-24 21:02:00,
2013-08-24 14:11:00,85.0,25.0,-100.00,ESE,114,12.0,23.0,11,0.00,,,0.00,1080.000000,,2013-08-24 21:11:00,
2013-08-24 14:22:00,85.0,25.0,-100.00,ESE,114,12.0,23.0,11,0.00,,,0.00,1080.000000,,2013-08-24 21:22:00,
2013-08-24 14:55:00,85.0,20.0,-100.00,SE,125,8.0,24.0,9,0.00,,,0.00,1054.000000,,2013-08-24 21:55:00,
2013-08-24 15:04:00,85.0,20.0,-100.00,SE,125,8.0,24.0,9,0.00,,,0.00,1054.000000,,2013-08-24 22:04:00,
2013-08-24 15:14:00,85.0,20.0,-100.00,SE,125,8.0,24.0,9,0.00,,,0.00,1054.000000,,2013-08-24 22:14:00,
2013-08-24 15:23:00,85.0,20.0,-100.00,SE,125,8.0,24.0,9,0.00,,,0.00,1054.000000,,2013-08-24 22:23:00,
2013-08-24 15:53:00,86.0,11.0,-100.00,ESE,108,8.0,19.0,6,0.00,,,0.00,968.000000,,2013-08-24 22:53:00,
2013-08-24 16:03:00,86.0,11.0,-100.00,ESE,108,8.0,19.0,6,0.00,,,0.00,968.000000,,2013-08-24 23:03:00,
2013-08-24 16:12:00,86.0,11.0,-100.00,ESE,108,8.0,19.0,6,0.00,,,0.00,968.000000,,2013-08-24 23:12:00,
2013-08-24 16:22:00,86.0,11.0,-100.00,ESE,108,8.0,19.0,6,0.00,,,0.00,968.000000,,2013-08-24 23:22:00,
2013-08-24 16:53:00,87.0,26.0,-100.00,WNW,302,5.0,20.0,11,0.00,,,0.00,797.000000,,2013-08-24 23:53:00,
2013-08-24 17:02:00,87.0,26.0,-100.00,WNW,302,5.0,20.0,11,0.00,,,0.00,797.000000,,2013-08-25 00:02:00,
2013-08-24 17:21:00,87.0,26.0,-100.00,WNW,302,5.0,20.0,11,0.00,,,0.00,797.000000,,2013-08-25 00:21:00,
2013-08-24 17:52:00,85.0,27.0,-100.00,WSW,240,8.0,16.0,12,0.00,,,0.00,574.000000,,2013-08-25 00:52:00,
2013-08-24 18:01:00,85.0,27.0,-100.00,WSW,240,8.0,16.0,12,0.00,,,0.00,574.000000,,2013-08-25 01:01:00,
2013-08-24 18:11:00,85.0,27.0,-100.00,WSW,240,8.0,16.0,12,0.00,,,0.00,574.000000,,2013-08-25 01:11:00,
2013-08-24 19:11:00,80.0,30.0,-100.00,WNW,292,8.0,18.0,16,0.00,,,0.00,341.000000,,2013-08-25 02:11:00,
2013-08-24 19:22:00,80.0,30.0,-100.00,WNW,292,8.0,18.0,16,0.00,,,0.00,341.000000,,2013-08-25 02:22:00,
2013-08-24 19:52:00,73.0,30.0,-100.00,East,97,3.0,14.0,20,0.00,,,0.00,95.000000,,2013-08-25 02:52:00,
2013-08-24 20:02:00,73.0,30.0,-100.00,East,97,3.0,14.0,20,0.00,,,0.00,95.000000,,2013-08-25 03:02:00,
2013-08-24 20:11:00,73.0,30.0,-100.00,East,97,3.0,14.0,20,0.00,,,0.00,95.000000,,2013-08-25 03:11:00,
2013-08-24 20:22:00,73.0,30.0,-100.00,East,97,3.0,14.0,20,0.00,,,0.00,95.000000,,2013-08-25 03:22:00,
2013-08-24 21:03:00,-999.0,-99.9,-100.00,WNW,290,3.0,9.0,-999,-99.99,,,-99.99,1.000000,,2013-08-25 04:03:00,
2013-08-24 21:24:00,68.0,30.0,-100.00,WNW,290,3.0,9.0,24,0.00,,,0.00,1.000000,,2013-08-25 04:24:00,
2013-08-24 21:54:00,66.0,31.0,-100.00,NW,324,3.0,7.0,27,0.00,,,0.00,0.000000,,2013-08-25 04:54:00,
2013-08-24 22:03:00,66.0,31.0,-100.00,NW,324,3.0,7.0,27,0.00,,,0.00,0.000000,,2013-08-25 05:03:00,
2013-08-24 22:12:00,66.0,31.0,-100.00,NW,324,3.0,7.0,27,0.00,,,0.00,0.000000,,2013-08-25 05:12:00,
2013-08-24 22:22:00,66.0,31.0,-100.00,NW,324,3.0,7.0,27,0.00,,,0.00,0.000000,,2013-08-25 05:22:00,
2013-08-24 22:52:00,65.0,30.0,-100.00,WSW,238,4.0,7.0,27,0.00,,,0.00,0.000000,,2013-08-25 05:52:00,
2013-08-24 23:03:00,65.0,30.0,-100.00,WSW,238,4.0,7.0,27,0.00,,,0.00,0.000000,,2013-08-25 06:03:00,
2013-08-24 23:12:00,65.0,30.0,-100.00,WSW,238,4.0,7.0,27,0.00,,,0.00,0.000000,,2013-08-25 06:12:00,
2013-08-24 23:21:00,65.0,30.0,-100.00,WSW,238,4.0,7.0,27,0.00,,,0.00,0.000000,,2013-08-25 06:21:00,
2013-08-24 23:52:00,62.0,30.0,-100.00,NW,322,5.0,7.0,30,0.00,,,0.00,0.000000,,2013-08-25 06:52:00,